Starlink 1234

operational
NORAD ID: 45190 Int'l Des: 2020-012 Owner: SPXS Country: US Constellation: starlink
LEOCIRCULARSTARLINK_TYPE

关于 Starlink 1234

正在加载描述...

实时位置

正在加载3D地球...

即将过境

高度历史

Altitude vs Time

uPlot chart will show altitude changes over time

两行轨道根数

1 45190U 20012N 26034.52979423 .00116565 00000-0 17207-2 0 9993
2 45190 53.0483 131.2681 0008560 203.5846 156.4772 15.54469503330553
Epoch: Feb 3, 2026 • Age: 26 hours

当前状态

高度 407.3 km
速度 7.67 km/s
星下点 -31.94°S, 16.1°W
发射日期 Feb 17, 2020
运行时间 5.9 years
类型 internet

技术详情

分类 Payload
质量 260.00 kg
干质量 248.00 kg
总质量 260.00 kg
长度 0.20 m
直径 2.80 m
跨度 9.00 m
形状 Box + pan
制造商 SPXS
平台类型 Starlink
阶段状态 In Orbit
所有者/国家 SPXS/US

大型星座

Loading constellations...